Location: Canazei
(46.4667°N, 11.7667°E)
Time: 05:31:35
(UTC+00:00)

NPP - Pass Details

Date: 21 April 2021
Orbit: 826 x 828 km, 98.7° (Epoch: 15 May)

Event Time Altitude Azimuth Distance (km) Brightness Sun altitude
Rises 01:48:40 0° 8° (N) 3,377 7.7 -21.9°
Reaches altitude 10° 01:51:07 10° 2° (N) 2,439 6.8 -21.6°
Maximum altitude 01:56:10 42° 293° (WNW) 1,165 4.2 -21.0°
Enters shadow 01:57:27 36° 259° (W) 1,285 4.2 -20.8°
